Location: Newark
(36.1358°N, 115.1208°W)
Time: 07:52:51
(UTC+00:00)

Vanguard 1 Rocket - Pass Details

Date: 19 February 2020
Orbit: 650 x 4226 km, 34.3° (Epoch: 04 April)

Event Time Altitude Azimuth Distance (km) Brightness Sun altitude
Rises 08:45:55 0° 219° (SW) 5,698 - -62.7°
Reaches altitude 10° 08:51:06 10° 209° (SSW) 4,038 - -62.2°
Maximum altitude 08:58:28 25° 159° (SSE) 2,181 - -61.3°
Drops below altitude 10° 09:03:19 10° 104° (ESE) 2,559 - -60.8°
Sets 09:05:46 0° 90° (E) 3,267 - -60.5°
